Regional Weather Roundup
Issued by NWS

Home | Current Version | Previous Version | Graphics & Text | Print | Product List | Glossary On
Versions: 1 2 3 4 5 6 7 8 9 10 11 12 13 14 15 16 17 18 19 20 21 22 23 24 25 26 27 28 29 30 31 32 33 34 35 36 37 38 39 40 41 42 43 44 45 46 47 48 49 50
000
ASUS43 KFSD 221810
RWRSD

WEATHER ROUNDUP FOR SOUTH DAKOTA
NATIONAL WEATHER SERVICE SIOUX FALLS SD
100 PM CDT FRI SEP 22 2017

NOTE: "FAIR" INDICATES FEW OR NO CLOUDS BELOW 12,000 FEET WITH NO
SIGNIFICANT WEATHER AND/OR OBSTRUCTIONS TO VISIBILITY.


SDZ001>005-009-010-012>017-221900-
NORTHWEST AND NORTH CENTRAL SOUTH DAKOTA

CITY           SKY/WX    TMP DP  RH WIND       PRES   REMARKS
BUFFALO          N/A     53  36  52 N21G28    29.79F
FAITH            N/A     55  45  68 N21       29.77R
MOBRIDGE       CLOUDY    64  57  78 N15       29.65S
$$

SDZ012>016-024>037-041>051-057-063-072>074-221900-
SOUTHWEST AND SOUTH CENTRAL SOUTH DAKOTA

CITY           SKY/WX    TMP DP  RH WIND       PRES   REMARKS
RAPID CTY ARPT MOSUNNY   59  39  47 NW31G40   29.83F
PIERRE         PTSUNNY   70  56  61 W17       29.67R
CUSTER         SUNNY     61  45  55 SW8       29.86R
ELLSWORTH AFB  MOSUNNY   58  38  48 NW24G31   29.82F
PHILIP         CLOUDY    59  49  69 NW20G29   29.77R
PINE RIDGE     MOSUNNY   62  44  51 NW12G21   29.82F
SPEARFISH      CLOUDY    52  37  58 NW14      29.91S
WINNER         FAIR      73  53  49 W18       29.73R
$$

SDZ004>011-016>023-039-040-221900-
NORTHEAST SOUTH DAKOTA

CITY           SKY/WX    TMP DP  RH WIND       PRES   REMARKS
ABERDEEN       MOSUNNY   87  69  54 S14       29.62F
WATERTOWN      MOSUNNY   84  71  65 S17G25    29.69F
BROOKINGS      MOSUNNY   85  70  60 S23G30    29.72F
SISSETON         N/A     85  74  69 SE14      29.66F
$$

SDZ017-020-022-023-036>040-048>070-221900-
SOUTHEAST SOUTH DAKOTA

CITY           SKY/WX    TMP DP  RH WIND       PRES   REMARKS
SIOUX FALLS    MOSUNNY   88  73  61 S18G28    29.72S HX  95
HURON          MOSUNNY   88  67  49 S18G26    29.64S
CHAMBERLAIN    SUNNY     76  54  47 SW14G21   29.71S
MITCHELL       SUNNY     92  66  42 SW18G29   29.65F
YANKTON        SUNNY     91  68  46 S23G38    29.69F HX  95
$$

ABBREVIATIONS USED IN REMARKS
   TC - TEMPERATURE IN CELSIUS
  WCI - WIND CHILL INDEX
   HX - HEAT INDEX
  VSB - VISIBILITY





USA.gov is the U.S. government's official web portal to all federal, state and local government web resources and services.